Tok, AK

7:10 PM AKST on February 23, 2017 (GMT -0900)
Eagle

Weather History for PAEG - December, 2013

Change the Weather History Date:

Sunday, December 8, 2013

  Actual Average (PABN) Record (PABN)
Temperature  
Mean Temperature 21 °F -  
Max Temperature 23 °F 4 °F 39 °F (1996)
Min Temperature 19 °F 0 °F -27 °F (2012)
Degree Days  
Heating Degree Days 44    
Moisture  
Dew Point 18 °F    
Average Humidity 86    
Maximum Humidity 93    
Minimum Humidity 81    
Precipitation  
Precipitation 0.01 in - - ()
Sea Level Pressure  
Sea Level Pressure 30.24 in    
Wind  
Wind Speed 0 mph (NW)    
Max Wind Speed 4 mph    
Max Gust Speed -    
Visibility 10 miles    
Events Rain    
Averages and records for this station are not official NWS values.
T = Trace of Precipitation, MM = Missing Value Source: NWS Daily Summary

Daily Weather History Graph

Daily Weather History Graph

Search for Another Location

Airport or City:

Trip Planner

Search our weather history database for the weather conditions in past years. The results will help you decide how hot, cold, wet, or windy it might be!

Date:

Astronomy

Dec. 08, 2013 Rise Set
Actual Time 10:11 AM AKST 2:21 PM AKST
Civil Twilight 8:51 AM AKST 3:41 PM AKST
Nautical Twilight 7:41 AM AKST 4:51 PM AKST
Astronomical Twilight 6:40 AM AKST 5:52 PM AKST
Moon 12:24 PM AKST (12/8) 11:43 PM AKST (12/8)
Length of Visible Light 6h 50m
Length of Day
4h 10m
Waxing Crescent, 41% of the Moon is Illuminated
Dec 8
Waxing Crescent
Dec 9
First Quarter
Dec 17
Full
Dec 25
Last Quarter
Jan 1
New

Hourly Weather History & Observations

Time (AKST) Temp. Windchill Dew Point Humidity Pressure Visibility Wind Dir Wind Speed Gust Speed Precip Events Conditions
12:53 AM 19.0 °F - 14.0 °F 81% 30.27 in 10.0 mi Calm Calm - N/A   Overcast
1:53 AM 19.9 °F 14.9 °F 15.1 °F 81% 30.25 in 10.0 mi West 3.5 mph - N/A   Overcast
2:53 AM 19.9 °F - 15.1 °F 81% 30.25 in 10.0 mi Calm Calm - N/A   Overcast
3:53 AM 21.0 °F - 17.1 °F 85% 30.26 in 10.0 mi Calm Calm - 0.00 in   Overcast
4:53 AM 21.0 °F - 17.1 °F 85% 30.24 in 10.0 mi Calm Calm - 0.00 in   Mostly Cloudy
5:53 AM 21.0 °F 16.2 °F 17.1 °F 85% 30.25 in 10.0 mi WNW 3.5 mph - N/A   Mostly Cloudy
6:53 AM 21.0 °F - 18.0 °F 88% 30.26 in 10.0 mi Calm Calm - N/A   Overcast
7:53 AM 21.9 °F - 19.0 °F 89% 30.27 in 10.0 mi Calm Calm - 0.00 in   Overcast
8:53 AM 23.0 °F - 19.0 °F 85% 30.28 in 10.0 mi Calm Calm - 0.01 in   Overcast
9:53 AM 23.0 °F - 19.9 °F 88% 30.30 in 10.0 mi Calm Calm - N/A   Overcast
10:53 AM 21.9 °F - 19.0 °F 89% 30.30 in 10.0 mi Calm Calm - N/A   Mostly Cloudy
11:53 AM 21.0 °F - 17.1 °F 85% 30.30 in 10.0 mi Calm Calm - N/A   Clear
12:53 PM 19.9 °F - 16.0 °F 85% 30.30 in 10.0 mi Calm Calm - N/A   Mostly Cloudy
1:53 PM 19.0 °F - 16.0 °F 88% 30.28 in 10.0 mi Calm Calm - N/A   Overcast
2:53 PM 19.9 °F - 18.0 °F 92% 30.29 in 10.0 mi Calm Calm - N/A   Overcast
3:53 PM 21.9 °F - 18.0 °F 85% 30.28 in 8.0 mi Calm Calm - 0.00 in   Overcast
4:11 PM 21.9 °F - 18.0 °F 85% 30.23 in 8.0 mi Calm Calm - 0.00 in Rain Light Freezing Rain
4:24 PM 21.9 °F - 19.0 °F 89% 30.22 in 10.0 mi Calm Calm - 0.00 in   Overcast
4:53 PM 21.9 °F 17.2 °F 18.0 °F 85% 30.27 in 10.0 mi NNE 3.5 mph - 0.00 in   Overcast
5:53 PM 21.9 °F - 19.0 °F 89% 30.26 in 10.0 mi Calm Calm - N/A   Overcast
6:53 PM 23.0 °F - 19.0 °F 85% 30.25 in 10.0 mi Calm Calm - N/A   Overcast
7:36 PM 21.9 °F - 19.0 °F 89% 30.19 in 10.0 mi Calm Calm - N/A   Overcast
7:48 PM 21.2 °F - 19.4 °F 93% 30.18 in 10.0 mi Calm Calm - N/A   Overcast
7:53 PM 23.0 °F - 19.0 °F 85% 30.23 in 10.0 mi Calm Calm - N/A   Overcast
8:53 PM 23.0 °F - 19.0 °F 85% 30.20 in 10.0 mi Calm Calm - N/A   Overcast
9:37 PM 21.9 °F - 19.0 °F 89% 30.15 in 10.0 mi Calm Calm - N/A   Overcast
9:53 PM 23.0 °F - 19.9 °F 88% 30.19 in 10.0 mi Calm Calm - N/A   Overcast
10:53 PM 23.0 °F - 19.0 °F 85% 30.18 in 10.0 mi Calm Calm - N/A   Overcast
11:33 PM 23.0 °F - 19.0 °F 85% 30.14 in 10.0 mi Calm Calm - 0.00 in   Overcast
11:43 PM 23.0 °F - 19.0 °F 85% 30.14 in 10.0 mi Calm Calm - 0.00 in   Overcast
11:53 PM 23.0 °F - 19.9 °F 88% 30.18 in 10.0 mi Calm Calm - 0.00 in   Overcast